Year,Month,Day,Hour,Minute,Value (Times are PST for temperature in C)
2010,11,12,00,00,8.40
2010,11,12,00,01,8.40
2010,11,12,00,02,8.40
2010,11,12,00,03,8.40
2010,11,12,00,04,8.40
2010,11,12,00,05,8.40
2010,11,12,00,06,8.40
2010,11,12,00,07,8.40
2010,11,12,00,08,8.40
2010,11,12,00,09,8.40
2010,11,12,00,10,8.40
2010,11,12,00,11,8.40
2010,11,12,00,12,8.40
2010,11,12,00,13,8.40
2010,11,12,00,14,8.40
2010,11,12,00,15,8.40
2010,11,12,00,16,8.40
2010,11,12,00,17,8.40
2010,11,12,00,18,8.30
2010,11,12,00,19,8.40
2010,11,12,00,20,8.30
2010,11,12,00,21,8.30
2010,11,12,00,22,8.30
2010,11,12,00,23,8.30
2010,11,12,00,24,8.30
2010,11,12,00,25,8.30
2010,11,12,00,26,8.30
2010,11,12,00,27,8.30
2010,11,12,00,28,8.30
2010,11,12,00,29,8.40
2010,11,12,00,30,8.30
2010,11,12,00,31,8.30
2010,11,12,00,32,8.30
2010,11,12,00,33,8.30
2010,11,12,00,34,8.30
2010,11,12,00,35,8.30
2010,11,12,00,36,8.30
2010,11,12,00,37,8.30
2010,11,12,00,38,8.30
2010,11,12,00,39,8.30
2010,11,12,00,40,8.30
2010,11,12,00,41,8.30
2010,11,12,00,42,8.30
2010,11,12,00,43,8.30
2010,11,12,00,44,8.30
2010,11,12,00,45,8.30
2010,11,12,00,46,8.30
2010,11,12,00,47,8.30
2010,11,12,00,48,8.30
2010,11,12,00,49,8.30
2010,11,12,00,50,8.30
2010,11,12,00,51,8.20
2010,11,12,00,52,8.20
2010,11,12,00,53,8.20
2010,11,12,00,54,8.20
2010,11,12,00,55,8.20
2010,11,12,00,56,8.10
2010,11,12,00,57,8.10
2010,11,12,00,58,8.10
2010,11,12,00,59,8.10
2010,11,12,01,00,8.00
2010,11,12,01,01,8.00
2010,11,12,01,02,8.00
2010,11,12,01,03,7.90
2010,11,12,01,04,7.90
2010,11,12,01,05,7.90
2010,11,12,01,06,7.80
2010,11,12,01,07,7.80
2010,11,12,01,08,7.80
2010,11,12,01,09,7.80
2010,11,12,01,10,7.70
2010,11,12,01,11,7.70
2010,11,12,01,12,7.70
2010,11,12,01,13,7.70
2010,11,12,01,14,7.60
2010,11,12,01,15,7.60
2010,11,12,01,16,7.60
2010,11,12,01,17,7.60
2010,11,12,01,18,7.50
2010,11,12,01,19,7.50
2010,11,12,01,20,7.50
2010,11,12,01,21,7.40
2010,11,12,01,22,7.40
2010,11,12,01,23,7.40
2010,11,12,01,24,7.40
2010,11,12,01,25,7.40
2010,11,12,01,26,7.30
2010,11,12,01,27,7.30
2010,11,12,01,28,7.30
2010,11,12,01,29,7.30
2010,11,12,01,30,7.30
2010,11,12,01,31,7.30
2010,11,12,01,32,7.30
2010,11,12,01,33,7.20
2010,11,12,01,34,7.20
2010,11,12,01,35,7.20
2010,11,12,01,36,7.20
2010,11,12,01,37,7.10
2010,11,12,01,38,7.10
2010,11,12,01,39,7.10
2010,11,12,01,40,7.10
2010,11,12,01,41,7.00
2010,11,12,01,42,7.00
2010,11,12,01,43,7.00
2010,11,12,01,44,6.90
2010,11,12,01,45,6.90
2010,11,12,01,46,6.90
2010,11,12,01,47,6.90
2010,11,12,01,48,7.00
2010,11,12,01,49,7.00
2010,11,12,01,50,7.00
2010,11,12,01,51,7.00
2010,11,12,01,52,7.10
2010,11,12,01,53,7.10
2010,11,12,01,54,7.10
2010,11,12,01,55,7.10
2010,11,12,01,56,7.10
2010,11,12,01,57,7.10
2010,11,12,01,58,7.20
2010,11,12,01,59,7.20
2010,11,12,02,00,7.20
2010,11,12,02,01,7.20
2010,11,12,02,02,7.20
2010,11,12,02,03,7.20
2010,11,12,02,04,7.20
2010,11,12,02,05,7.20
2010,11,12,02,06,7.20
2010,11,12,02,07,7.30
2010,11,12,02,08,7.30
2010,11,12,02,09,7.30
2010,11,12,02,10,7.30
2010,11,12,02,11,7.30
2010,11,12,02,12,7.30
2010,11,12,02,13,7.30
2010,11,12,02,14,7.30
2010,11,12,02,15,7.30
2010,11,12,02,16,7.30
2010,11,12,02,17,7.30
2010,11,12,02,18,7.30
2010,11,12,02,19,7.30
2010,11,12,02,20,7.30
2010,11,12,02,21,7.30
2010,11,12,02,22,7.20
2010,11,12,02,23,7.20
2010,11,12,02,24,7.20
2010,11,12,02,25,7.20
2010,11,12,02,26,7.10
2010,11,12,02,27,7.10
2010,11,12,02,28,7.00
2010,11,12,02,29,7.00
2010,11,12,02,30,6.90
2010,11,12,02,31,6.90
2010,11,12,02,32,6.80
2010,11,12,02,33,6.80
2010,11,12,02,34,6.70
2010,11,12,02,35,6.60
2010,11,12,02,36,6.40
2010,11,12,02,37,6.30
2010,11,12,02,38,6.20
2010,11,12,02,39,6.10
2010,11,12,02,40,6.10
2010,11,12,02,41,6.00
2010,11,12,02,42,5.90
2010,11,12,02,43,5.80
2010,11,12,02,44,5.70
2010,11,12,02,45,5.60
2010,11,12,02,46,5.50
2010,11,12,02,47,5.50
2010,11,12,02,48,5.40
2010,11,12,02,49,5.30
2010,11,12,02,50,5.30
2010,11,12,02,51,5.30
2010,11,12,02,52,5.30
2010,11,12,02,53,5.30
2010,11,12,02,54,5.30
2010,11,12,02,55,5.30
2010,11,12,02,56,5.40
2010,11,12,02,57,5.30
2010,11,12,02,58,5.30
2010,11,12,02,59,5.30
2010,11,12,03,00,5.30
2010,11,12,03,01,5.30
2010,11,12,03,02,5.30
2010,11,12,03,03,5.20
2010,11,12,03,04,5.20
2010,11,12,03,05,5.30
2010,11,12,03,06,5.30
2010,11,12,03,07,5.30
2010,11,12,03,08,5.30
2010,11,12,03,09,5.30
2010,11,12,03,10,5.40
2010,11,12,03,11,5.40
2010,11,12,03,12,5.40
2010,11,12,03,13,5.40
2010,11,12,03,14,5.40
2010,11,12,03,15,5.40
2010,11,12,03,16,5.40
2010,11,12,03,17,5.40
2010,11,12,03,18,5.30
2010,11,12,03,19,5.30
2010,11,12,03,20,5.10
2010,11,12,03,21,5.00
2010,11,12,03,22,4.90
2010,11,12,03,23,4.80
2010,11,12,03,24,4.80
2010,11,12,03,25,4.70
2010,11,12,03,26,4.60
2010,11,12,03,27,4.60
2010,11,12,03,28,4.60
2010,11,12,03,29,4.50
2010,11,12,03,30,4.50
2010,11,12,03,31,4.50
2010,11,12,03,32,4.50
2010,11,12,03,33,4.50
2010,11,12,03,34,4.50
2010,11,12,03,35,4.50
2010,11,12,03,36,4.60
2010,11,12,03,37,4.70
2010,11,12,03,38,4.80
2010,11,12,03,39,4.80
2010,11,12,03,40,5.00
2010,11,12,03,41,5.10
2010,11,12,03,42,5.30
2010,11,12,03,43,5.40
2010,11,12,03,44,5.50
2010,11,12,03,45,5.70
2010,11,12,03,46,5.80
2010,11,12,03,47,5.80
2010,11,12,03,48,5.90
2010,11,12,03,49,6.00
2010,11,12,03,50,6.10
2010,11,12,03,51,6.10
2010,11,12,03,52,6.20
2010,11,12,03,53,6.20
2010,11,12,03,54,6.30
2010,11,12,03,55,6.30
2010,11,12,03,56,6.40
2010,11,12,03,57,6.40
2010,11,12,03,58,6.40
2010,11,12,03,59,6.50
2010,11,12,04,00,6.50
2010,11,12,04,01,6.50
2010,11,12,04,02,6.50
2010,11,12,04,03,6.50
2010,11,12,04,06,6.30
2010,11,12,04,07,6.30
2010,11,12,04,08,6.00
2010,11,12,04,09,5.90
2010,11,12,04,10,5.70
2010,11,12,04,11,5.60
2010,11,12,04,12,5.40
2010,11,12,04,13,5.30
2010,11,12,04,14,5.10
2010,11,12,04,15,5.00
2010,11,12,04,16,4.90
2010,11,12,04,17,4.80
2010,11,12,04,18,4.80
2010,11,12,04,19,4.80
2010,11,12,04,20,4.80
2010,11,12,04,21,4.80
2010,11,12,04,22,4.70
2010,11,12,04,23,4.50
2010,11,12,04,24,4.50
2010,11,12,04,25,4.40
2010,11,12,04,26,4.40
2010,11,12,04,27,4.30
2010,11,12,04,28,4.30
2010,11,12,04,29,4.30
2010,11,12,04,30,4.20
2010,11,12,04,31,4.20
2010,11,12,04,32,4.20
2010,11,12,04,33,4.20
2010,11,12,04,34,4.20
2010,11,12,04,35,4.20
2010,11,12,04,36,4.20
2010,11,12,04,37,4.10
2010,11,12,04,38,4.10
2010,11,12,04,39,4.10
2010,11,12,04,40,4.10
2010,11,12,04,41,4.10
2010,11,12,04,42,4.10
2010,11,12,04,43,4.10
2010,11,12,04,44,4.10
2010,11,12,04,45,4.00
2010,11,12,04,46,4.00
2010,11,12,04,47,4.00
2010,11,12,04,48,4.00
2010,11,12,04,49,4.00
2010,11,12,04,50,4.00
2010,11,12,04,51,4.10
2010,11,12,04,52,4.10
2010,11,12,04,53,4.10
2010,11,12,04,54,4.10
2010,11,12,04,55,4.10
2010,11,12,04,56,4.10
2010,11,12,04,57,4.00
2010,11,12,04,58,4.00
2010,11,12,04,59,4.00
2010,11,12,05,00,3.90
2010,11,12,05,01,3.90
2010,11,12,05,02,3.80
2010,11,12,05,03,3.80
2010,11,12,05,04,3.80
2010,11,12,05,05,3.80
2010,11,12,05,06,3.80
2010,11,12,05,07,3.80
2010,11,12,05,08,3.80
2010,11,12,05,09,3.80
2010,11,12,05,10,3.80
2010,11,12,05,11,3.80
2010,11,12,05,12,3.80
2010,11,12,05,13,3.80
2010,11,12,05,14,3.80
2010,11,12,05,15,3.80
2010,11,12,05,16,3.80
2010,11,12,05,17,3.80
2010,11,12,05,18,3.90
2010,11,12,05,19,3.90
2010,11,12,05,20,3.90
2010,11,12,05,21,3.90
2010,11,12,05,22,3.90
2010,11,12,05,23,3.90
2010,11,12,05,24,3.90
2010,11,12,05,25,3.90
2010,11,12,05,26,3.90
2010,11,12,05,27,3.90
2010,11,12,05,28,3.90
2010,11,12,05,29,3.90
2010,11,12,05,30,3.90
2010,11,12,05,31,3.90
2010,11,12,05,32,3.90
2010,11,12,05,33,3.80
2010,11,12,05,34,3.80
2010,11,12,05,35,3.80
2010,11,12,05,36,3.80
2010,11,12,05,37,3.80
2010,11,12,05,38,3.80
2010,11,12,05,39,3.70
2010,11,12,05,40,3.70
2010,11,12,05,41,3.70
2010,11,12,05,42,3.70
2010,11,12,05,43,3.70
2010,11,12,05,44,3.70
2010,11,12,05,45,3.70
2010,11,12,05,46,3.70
2010,11,12,05,47,3.70
2010,11,12,05,48,3.60
2010,11,12,05,49,3.60
2010,11,12,05,50,3.60
2010,11,12,05,51,3.60
2010,11,12,05,52,3.60
2010,11,12,05,53,3.50
2010,11,12,05,54,3.50
2010,11,12,05,55,3.40
2010,11,12,05,56,3.40
2010,11,12,05,57,3.30
2010,11,12,05,58,3.30
2010,11,12,05,59,3.30
2010,11,12,06,00,3.30
2010,11,12,06,01,3.20
2010,11,12,06,02,3.20
2010,11,12,06,03,3.20
2010,11,12,06,04,3.20
2010,11,12,06,05,3.20
2010,11,12,06,06,3.20
2010,11,12,06,07,3.30
2010,11,12,06,08,3.30
2010,11,12,06,09,3.30
2010,11,12,06,10,3.30
2010,11,12,06,11,3.30
2010,11,12,06,12,3.30
2010,11,12,06,13,3.20
2010,11,12,06,14,3.20
2010,11,12,06,15,3.20
2010,11,12,06,16,3.20
2010,11,12,06,17,3.20
2010,11,12,06,18,3.10
2010,11,12,06,19,3.20
2010,11,12,06,20,3.20
2010,11,12,06,21,3.20
2010,11,12,06,22,3.20
2010,11,12,06,23,3.20
2010,11,12,06,24,3.30
2010,11,12,06,25,3.30
2010,11,12,06,26,3.30
2010,11,12,06,27,3.30
2010,11,12,06,28,3.30
2010,11,12,06,29,3.30
2010,11,12,06,30,3.30
2010,11,12,06,31,3.30
2010,11,12,06,32,3.30
2010,11,12,06,33,3.30
2010,11,12,06,34,3.30
2010,11,12,06,35,3.30
2010,11,12,06,36,3.30
2010,11,12,06,37,3.30
2010,11,12,06,38,3.30
2010,11,12,06,39,3.30
2010,11,12,06,40,3.30
2010,11,12,06,41,3.30
2010,11,12,06,42,3.30
2010,11,12,06,43,3.30
2010,11,12,06,44,3.30
2010,11,12,06,45,3.30
2010,11,12,06,46,3.30
2010,11,12,06,47,3.30
2010,11,12,06,48,3.30
2010,11,12,06,49,3.30
2010,11,12,06,50,3.30
2010,11,12,06,51,3.30
2010,11,12,06,52,3.30
2010,11,12,06,53,3.30
2010,11,12,06,54,3.30
2010,11,12,06,55,3.30
2010,11,12,06,56,3.30
2010,11,12,06,57,3.30
2010,11,12,06,58,3.30
2010,11,12,06,59,3.30
2010,11,12,07,00,3.30
2010,11,12,07,01,3.30
2010,11,12,07,02,3.20
2010,11,12,07,03,3.20
2010,11,12,07,04,3.20
2010,11,12,07,05,3.20
2010,11,12,07,06,3.20
2010,11,12,07,07,3.10
2010,11,12,07,08,3.10
2010,11,12,07,09,3.00
2010,11,12,07,10,3.00
2010,11,12,07,11,2.90
2010,11,12,07,12,2.90
2010,11,12,07,13,2.90
2010,11,12,07,14,2.80
2010,11,12,07,15,2.80
2010,11,12,07,16,2.80
2010,11,12,07,17,2.70
2010,11,12,07,18,2.60
2010,11,12,07,19,2.60
2010,11,12,07,20,2.50
2010,11,12,07,21,2.50
2010,11,12,07,22,2.40
2010,11,12,07,23,2.40
2010,11,12,07,24,2.40
2010,11,12,07,25,2.30
2010,11,12,07,26,2.30
2010,11,12,07,27,2.30
2010,11,12,07,28,2.30
2010,11,12,07,29,2.30
2010,11,12,07,30,2.30
2010,11,12,07,31,2.30
2010,11,12,07,32,2.30
2010,11,12,07,33,2.30
2010,11,12,07,34,2.30
2010,11,12,07,35,2.30
2010,11,12,07,36,2.30
2010,11,12,07,37,2.20
2010,11,12,07,38,2.20
2010,11,12,07,39,2.20
2010,11,12,07,40,2.20
2010,11,12,07,41,2.20
2010,11,12,07,42,2.20
2010,11,12,07,43,2.20
2010,11,12,07,44,2.20
2010,11,12,07,45,2.20
2010,11,12,07,46,2.20
2010,11,12,07,47,2.30
2010,11,12,07,48,2.30
2010,11,12,07,49,2.40
2010,11,12,07,50,2.50
2010,11,12,07,51,2.60
2010,11,12,07,52,2.70
2010,11,12,07,53,2.80
2010,11,12,07,54,2.90
2010,11,12,07,55,3.00
2010,11,12,07,56,3.10
2010,11,12,07,57,3.20
2010,11,12,07,58,3.30
2010,11,12,07,59,3.40
2010,11,12,08,00,3.60
2010,11,12,08,01,3.70
2010,11,12,08,02,3.80
2010,11,12,08,03,3.80
2010,11,12,08,04,3.80
2010,11,12,08,05,3.70
2010,11,12,08,06,3.70
2010,11,12,08,07,3.60
2010,11,12,08,08,3.50
2010,11,12,08,09,3.50
2010,11,12,08,10,3.40
2010,11,12,08,11,3.40
2010,11,12,08,12,3.40
2010,11,12,08,13,3.40
2010,11,12,08,14,3.50
2010,11,12,08,15,3.50
2010,11,12,08,16,3.60
2010,11,12,08,17,3.70
2010,11,12,08,18,3.70
2010,11,12,08,19,3.80
2010,11,12,08,20,3.90
2010,11,12,08,21,3.90
2010,11,12,08,22,4.00
2010,11,12,08,23,4.10
2010,11,12,08,24,4.10
2010,11,12,08,25,4.20
2010,11,12,08,26,4.30
2010,11,12,08,27,4.30
2010,11,12,08,28,4.40
2010,11,12,08,29,4.40
2010,11,12,08,30,4.50
2010,11,12,08,31,4.60
2010,11,12,08,32,4.60
2010,11,12,08,33,4.70
2010,11,12,08,34,4.70
2010,11,12,08,35,4.70
2010,11,12,08,36,4.80
2010,11,12,08,37,4.80
2010,11,12,08,38,4.80
2010,11,12,08,39,4.90
2010,11,12,08,40,4.90
2010,11,12,08,41,4.90
2010,11,12,08,42,4.90
2010,11,12,08,43,5.00
2010,11,12,08,44,5.00
2010,11,12,08,45,5.10
2010,11,12,08,46,5.10
2010,11,12,08,47,5.20
2010,11,12,08,48,5.30
2010,11,12,08,49,5.30
2010,11,12,08,50,5.40
2010,11,12,08,51,5.50
2010,11,12,08,52,5.60
2010,11,12,08,53,5.60
2010,11,12,08,54,5.70
2010,11,12,08,55,5.70
2010,11,12,08,56,5.80
2010,11,12,08,57,5.80
2010,11,12,08,58,5.80
2010,11,12,08,59,5.80
2010,11,12,09,00,5.80
2010,11,12,09,01,5.90
2010,11,12,09,02,5.90
2010,11,12,09,03,5.90
2010,11,12,09,04,6.00
2010,11,12,09,05,6.00
2010,11,12,09,06,6.10
2010,11,12,09,07,6.20
2010,11,12,09,08,6.20
2010,11,12,09,09,6.30
2010,11,12,09,10,6.40
2010,11,12,09,11,6.40
2010,11,12,09,12,6.50
2010,11,12,09,13,6.50
2010,11,12,09,14,6.60
2010,11,12,09,15,6.70
2010,11,12,09,16,6.70
2010,11,12,09,17,6.80
2010,11,12,09,18,6.90
2010,11,12,09,19,7.10
2010,11,12,09,20,7.20
2010,11,12,09,21,7.40
2010,11,12,09,22,7.50
2010,11,12,09,23,7.50
2010,11,12,09,24,7.60
2010,11,12,09,25,7.70
2010,11,12,09,26,7.70
2010,11,12,09,27,7.70
2010,11,12,09,28,7.80
2010,11,12,09,29,7.80
2010,11,12,09,30,7.80
2010,11,12,09,31,7.90
2010,11,12,09,32,7.90
2010,11,12,09,33,7.90
2010,11,12,09,34,7.90
2010,11,12,09,35,7.90
2010,11,12,09,36,8.00
2010,11,12,09,37,8.00
2010,11,12,09,38,8.00
2010,11,12,09,39,8.10
2010,11,12,09,40,8.10
2010,11,12,09,41,8.10
2010,11,12,09,42,8.10
2010,11,12,09,43,8.20
2010,11,12,09,44,8.20
2010,11,12,09,45,8.30
2010,11,12,09,46,8.30
2010,11,12,09,47,8.40
2010,11,12,09,48,8.40
2010,11,12,09,49,8.50
2010,11,12,09,50,8.60
2010,11,12,09,51,8.60
2010,11,12,09,52,8.70
2010,11,12,09,53,8.90
2010,11,12,09,54,9.00
2010,11,12,09,55,9.10
2010,11,12,09,56,9.10
2010,11,12,09,57,9.20
2010,11,12,09,58,9.30
2010,11,12,09,59,9.30
2010,11,12,10,00,9.40
2010,11,12,10,01,9.50
2010,11,12,10,02,9.60
2010,11,12,10,03,9.70
2010,11,12,10,04,9.80
2010,11,12,10,05,9.90
2010,11,12,10,06,10.00
2010,11,12,10,07,10.10
2010,11,12,10,08,10.20
2010,11,12,10,09,10.30
2010,11,12,10,10,10.30
2010,11,12,10,11,10.30
2010,11,12,10,12,10.30
2010,11,12,10,13,10.30
2010,11,12,10,14,10.20
2010,11,12,10,15,10.10
2010,11,12,10,16,10.10
2010,11,12,10,17,10.00
2010,11,12,10,18,10.00
2010,11,12,10,19,10.00
2010,11,12,10,20,10.00
2010,11,12,10,21,10.00
2010,11,12,10,22,10.00
2010,11,12,10,23,10.00
2010,11,12,10,24,10.10
2010,11,12,10,25,10.10
2010,11,12,10,26,10.20
2010,11,12,10,27,10.20
2010,11,12,10,28,10.20
2010,11,12,10,29,10.20
2010,11,12,10,30,10.30
2010,11,12,10,31,10.30
2010,11,12,10,32,10.30
2010,11,12,10,33,10.40
2010,11,12,10,34,10.40
2010,11,12,10,35,10.50
2010,11,12,10,36,10.50
2010,11,12,10,37,10.60
2010,11,12,10,38,10.60
2010,11,12,10,39,10.60
2010,11,12,10,40,10.60
2010,11,12,10,41,10.70
2010,11,12,10,42,10.70
2010,11,12,10,43,10.80
2010,11,12,10,44,10.80
2010,11,12,10,45,10.80
2010,11,12,10,46,10.80
2010,11,12,10,47,10.90
2010,11,12,10,48,10.90
2010,11,12,10,49,11.00
2010,11,12,10,50,11.00
2010,11,12,10,51,11.00
2010,11,12,10,52,11.00
2010,11,12,10,53,11.10
2010,11,12,10,54,11.00
2010,11,12,10,55,11.00
2010,11,12,10,56,11.00
2010,11,12,10,57,11.00
2010,11,12,10,58,11.00
2010,11,12,10,59,11.00
2010,11,12,11,00,11.00
2010,11,12,11,01,11.00
2010,11,12,11,02,11.00
2010,11,12,11,03,11.00
2010,11,12,11,04,11.00
2010,11,12,11,05,11.00
2010,11,12,11,06,11.00
2010,11,12,11,07,11.00
2010,11,12,11,08,11.10
2010,11,12,11,09,11.10
2010,11,12,11,10,11.10
2010,11,12,11,11,11.10
2010,11,12,11,12,11.10
2010,11,12,11,13,11.10
2010,11,12,11,14,11.10
2010,11,12,11,15,11.10
2010,11,12,11,16,11.20
2010,11,12,11,17,11.20
2010,11,12,11,18,11.30
2010,11,12,11,19,11.30
2010,11,12,11,20,11.30
2010,11,12,11,21,11.30
2010,11,12,11,22,11.30
2010,11,12,11,23,11.30
2010,11,12,11,24,11.30
2010,11,12,11,25,11.40
2010,11,12,11,26,11.40
2010,11,12,11,27,11.30
2010,11,12,11,28,11.30
2010,11,12,11,29,11.20
2010,11,12,11,30,11.20
2010,11,12,11,31,11.20
2010,11,12,11,32,11.20
2010,11,12,11,33,11.20
2010,11,12,11,34,11.20
2010,11,12,11,35,11.20
2010,11,12,11,36,11.20
2010,11,12,11,37,11.30
2010,11,12,11,38,11.30
2010,11,12,11,39,11.30
2010,11,12,11,40,11.30
2010,11,12,11,41,11.30
2010,11,12,11,42,11.30
2010,11,12,11,43,11.30
2010,11,12,11,44,11.30
2010,11,12,11,45,11.30
2010,11,12,11,46,11.30
2010,11,12,11,47,11.30
2010,11,12,11,48,11.30
2010,11,12,11,49,11.30
2010,11,12,11,50,11.30
2010,11,12,11,51,11.30
2010,11,12,11,52,11.30
2010,11,12,11,53,11.30
2010,11,12,11,54,11.30
2010,11,12,11,55,11.30
2010,11,12,11,56,11.30
2010,11,12,11,57,11.30
2010,11,12,11,58,11.30
2010,11,12,11,59,11.40
2010,11,12,12,00,11.40
2010,11,12,12,01,11.40
2010,11,12,12,02,11.40
2010,11,12,12,03,11.40
2010,11,12,12,04,11.40
2010,11,12,12,05,11.40
2010,11,12,12,06,11.40
2010,11,12,12,07,11.40
2010,11,12,12,08,11.40
2010,11,12,12,09,11.40
2010,11,12,12,10,11.40
2010,11,12,12,11,11.40
2010,11,12,12,12,11.40
2010,11,12,12,13,11.40
2010,11,12,12,14,11.40
2010,11,12,12,15,11.40
2010,11,12,12,16,11.40
2010,11,12,12,17,11.40
2010,11,12,12,18,11.40
2010,11,12,12,19,11.40
2010,11,12,12,20,11.40
2010,11,12,12,21,11.50
2010,11,12,12,22,11.50
2010,11,12,12,23,11.40
2010,11,12,12,24,11.40
2010,11,12,12,25,11.30
2010,11,12,12,26,11.30
2010,11,12,12,27,11.30
2010,11,12,12,28,11.20
2010,11,12,12,29,11.30
2010,11,12,12,30,11.30
2010,11,12,12,31,11.30
2010,11,12,12,32,11.30
2010,11,12,12,33,11.20
2010,11,12,12,34,11.20
2010,11,12,12,35,11.20
2010,11,12,12,36,11.20
2010,11,12,12,37,11.20
2010,11,12,12,38,11.20
2010,11,12,12,39,11.30
2010,11,12,12,40,11.30
2010,11,12,12,41,11.30
2010,11,12,12,42,11.30
2010,11,12,12,43,11.30
2010,11,12,12,44,11.30
2010,11,12,12,45,11.30
2010,11,12,12,46,11.30
2010,11,12,12,47,11.40
2010,11,12,12,48,11.40
2010,11,12,12,49,11.40
2010,11,12,12,50,11.40
2010,11,12,12,51,11.40
2010,11,12,12,52,11.40
2010,11,12,12,53,11.40
2010,11,12,12,54,11.40
2010,11,12,12,55,11.40
2010,11,12,12,56,11.50
2010,11,12,12,57,11.50
2010,11,12,12,58,11.60
2010,11,12,12,59,11.60
2010,11,12,13,00,11.60
2010,11,12,13,01,11.60
2010,11,12,13,02,11.60
2010,11,12,13,03,11.60
2010,11,12,13,04,11.60
2010,11,12,13,05,11.60
2010,11,12,13,06,11.50
2010,11,12,13,07,11.50
2010,11,12,13,08,11.50
2010,11,12,13,09,11.50
2010,11,12,13,10,11.40
2010,11,12,13,11,11.40
2010,11,12,13,12,11.40
2010,11,12,13,13,11.30
2010,11,12,13,14,11.30
2010,11,12,13,15,11.30
2010,11,12,13,16,11.30
2010,11,12,13,17,11.30
2010,11,12,13,18,11.30
2010,11,12,13,19,11.30
2010,11,12,13,20,11.20
2010,11,12,13,21,11.30
2010,11,12,13,22,11.30
2010,11,12,13,23,11.30
2010,11,12,13,24,11.30
2010,11,12,13,25,11.40
2010,11,12,13,26,11.30
2010,11,12,13,27,11.30
2010,11,12,13,28,11.30
2010,11,12,13,29,11.40
2010,11,12,13,30,11.40
2010,11,12,13,31,11.40
2010,11,12,13,32,11.40
2010,11,12,13,33,11.40
2010,11,12,13,34,11.30
2010,11,12,13,35,11.30
2010,11,12,13,36,11.30
2010,11,12,13,37,11.30
2010,11,12,13,38,11.30
2010,11,12,13,39,11.20
2010,11,12,13,40,11.10
2010,11,12,13,41,11.10
2010,11,12,13,42,11.10
2010,11,12,13,43,11.10
2010,11,12,13,44,11.10
2010,11,12,13,45,11.10
2010,11,12,13,46,11.00
2010,11,12,13,47,10.90
2010,11,12,13,48,10.90
2010,11,12,13,49,10.90
2010,11,12,13,50,10.90
2010,11,12,13,51,10.90
2010,11,12,13,52,11.00
2010,11,12,13,53,11.00
2010,11,12,13,54,11.00
2010,11,12,13,55,11.00
2010,11,12,13,56,11.00
2010,11,12,13,57,11.00
2010,11,12,13,58,11.00
2010,11,12,13,59,11.00
2010,11,12,14,00,11.00
2010,11,12,14,01,11.00
2010,11,12,14,02,11.00
2010,11,12,14,03,11.00
2010,11,12,14,04,11.00
2010,11,12,14,05,11.00
2010,11,12,14,06,10.90
2010,11,12,14,07,10.90
2010,11,12,14,08,10.90
2010,11,12,14,09,10.90
2010,11,12,14,10,11.00
2010,11,12,14,11,11.00
2010,11,12,14,12,11.00
2010,11,12,14,13,10.90
2010,11,12,14,14,10.80
2010,11,12,14,15,10.70
2010,11,12,14,16,10.70
2010,11,12,14,17,10.70
2010,11,12,14,18,10.80
2010,11,12,14,19,10.80
2010,11,12,14,20,10.80
2010,11,12,14,21,10.80
2010,11,12,14,22,10.80
2010,11,12,14,23,10.90
2010,11,12,14,24,10.90
2010,11,12,14,25,10.90
2010,11,12,14,26,10.90
2010,11,12,14,27,10.90
2010,11,12,14,28,11.00
2010,11,12,14,29,11.00
2010,11,12,14,30,11.00
2010,11,12,14,31,11.00
2010,11,12,14,32,11.00
2010,11,12,14,33,10.90
2010,11,12,14,34,10.90
2010,11,12,14,35,10.90
2010,11,12,14,36,10.90
2010,11,12,14,37,10.90
2010,11,12,14,38,10.80
2010,11,12,14,39,10.80
2010,11,12,14,40,10.70
2010,11,12,14,41,10.60
2010,11,12,14,42,10.50
2010,11,12,14,43,10.50
2010,11,12,14,44,10.40
2010,11,12,14,45,10.30
2010,11,12,14,46,10.30
2010,11,12,14,47,10.30
2010,11,12,14,48,10.20
2010,11,12,14,49,10.20
2010,11,12,14,50,10.20
2010,11,12,14,51,10.10
2010,11,12,14,52,10.10
2010,11,12,14,53,10.10
2010,11,12,14,54,10.10
2010,11,12,14,55,10.10
2010,11,12,14,56,10.10
2010,11,12,14,57,10.10
2010,11,12,14,58,10.10
2010,11,12,14,59,10.10
2010,11,12,15,00,10.10
2010,11,12,15,01,10.10
2010,11,12,15,02,10.10
2010,11,12,15,03,10.10
2010,11,12,15,04,10.10
2010,11,12,15,05,10.10
2010,11,12,15,06,10.10
2010,11,12,15,07,10.10
2010,11,12,15,08,10.10
2010,11,12,15,09,10.00
2010,11,12,15,10,10.00
2010,11,12,15,11,10.00
2010,11,12,15,12,10.00
2010,11,12,15,13,10.00
2010,11,12,15,14,10.00
2010,11,12,15,15,10.00
2010,11,12,15,16,10.00
2010,11,12,15,17,10.00
2010,11,12,15,18,10.00
2010,11,12,15,19,10.00
2010,11,12,15,20,10.00
2010,11,12,15,21,10.00
2010,11,12,15,22,10.00
2010,11,12,15,23,10.00
2010,11,12,15,24,10.00
2010,11,12,15,25,10.00
2010,11,12,15,26,10.00
2010,11,12,15,27,10.00
2010,11,12,15,28,10.00
2010,11,12,15,29,9.90
2010,11,12,15,30,9.90
2010,11,12,15,31,9.90
2010,11,12,15,32,9.90
2010,11,12,15,33,9.90
2010,11,12,15,34,9.90
2010,11,12,15,35,9.90
2010,11,12,15,36,9.90
2010,11,12,15,37,9.90
2010,11,12,15,38,9.90
2010,11,12,15,39,9.90
2010,11,12,15,40,9.90
2010,11,12,15,41,9.80
2010,11,12,15,42,9.80
2010,11,12,15,43,9.80
2010,11,12,15,44,9.80
2010,11,12,15,45,9.80
2010,11,12,15,46,9.80
2010,11,12,15,47,9.80
2010,11,12,15,48,9.80
2010,11,12,15,49,9.80
2010,11,12,15,50,9.80
2010,11,12,15,51,9.80
2010,11,12,15,52,9.70
2010,11,12,15,53,9.70
2010,11,12,15,54,9.70
2010,11,12,15,55,9.70
2010,11,12,15,56,9.70
2010,11,12,15,57,9.70
2010,11,12,15,58,9.70
2010,11,12,15,59,9.70
2010,11,12,16,00,9.70
2010,11,12,16,01,9.70
2010,11,12,16,02,9.70
2010,11,12,16,03,9.70
2010,11,12,16,04,9.70
2010,11,12,16,05,9.70
2010,11,12,16,06,9.70
2010,11,12,16,07,9.70
2010,11,12,16,08,9.70
2010,11,12,16,09,9.70
2010,11,12,16,10,9.70
2010,11,12,16,11,9.70
2010,11,12,16,12,9.70
2010,11,12,16,13,9.70
2010,11,12,16,14,9.70
2010,11,12,16,15,9.70
2010,11,12,16,16,9.70
2010,11,12,16,17,9.70
2010,11,12,16,18,9.70
2010,11,12,16,19,9.70
2010,11,12,16,20,9.70
2010,11,12,16,21,9.70
2010,11,12,16,22,9.70
2010,11,12,16,23,9.70
2010,11,12,16,24,9.70
2010,11,12,16,25,9.70
2010,11,12,16,26,9.70
2010,11,12,16,27,9.70
2010,11,12,16,28,9.70
2010,11,12,16,29,9.70
2010,11,12,16,30,9.70
2010,11,12,16,31,9.70
2010,11,12,16,32,9.60
2010,11,12,16,33,9.60
2010,11,12,16,34,9.60
2010,11,12,16,35,9.60
2010,11,12,16,36,9.60
2010,11,12,16,37,9.60
2010,11,12,16,38,9.60
2010,11,12,16,39,9.60
2010,11,12,16,40,9.60
2010,11,12,16,41,9.60
2010,11,12,16,42,9.60
2010,11,12,16,43,9.60
2010,11,12,16,44,9.50
2010,11,12,16,45,9.50
2010,11,12,16,46,9.50
2010,11,12,16,47,9.50
2010,11,12,16,48,9.50
2010,11,12,16,49,9.50
2010,11,12,16,50,9.50
2010,11,12,16,51,9.50
2010,11,12,16,52,9.40
2010,11,12,16,53,9.40
2010,11,12,16,54,9.40
2010,11,12,16,55,9.40
2010,11,12,16,56,9.40
2010,11,12,16,57,9.40
2010,11,12,16,58,9.40
2010,11,12,16,59,9.40
2010,11,12,17,00,9.40
2010,11,12,17,01,9.40
2010,11,12,17,02,9.40
2010,11,12,17,03,9.40
2010,11,12,17,04,9.40
2010,11,12,17,05,9.40
2010,11,12,17,06,9.40
2010,11,12,17,07,9.40
2010,11,12,17,08,9.40
2010,11,12,17,09,9.40
2010,11,12,17,10,9.40
2010,11,12,17,11,9.40
2010,11,12,17,12,9.40
2010,11,12,17,13,9.40
2010,11,12,17,14,9.40
2010,11,12,17,15,9.40
2010,11,12,17,16,9.40
2010,11,12,17,17,9.40
2010,11,12,17,18,9.40
2010,11,12,17,19,9.40
2010,11,12,17,20,9.40
2010,11,12,17,21,9.40
2010,11,12,17,22,9.40
2010,11,12,17,23,9.40
2010,11,12,17,24,9.40
2010,11,12,17,25,9.40
2010,11,12,17,26,9.40
2010,11,12,17,27,9.40
2010,11,12,17,28,9.40
2010,11,12,17,29,9.40
2010,11,12,17,30,9.40
2010,11,12,17,31,9.40
2010,11,12,17,32,9.40
2010,11,12,17,33,9.40
2010,11,12,17,34,9.40
2010,11,12,17,35,9.40
2010,11,12,17,36,9.40
2010,11,12,17,37,9.40
2010,11,12,17,38,9.40
2010,11,12,17,39,9.40
2010,11,12,17,40,9.40
2010,11,12,17,41,9.50
2010,11,12,17,42,9.50
2010,11,12,17,43,9.50
2010,11,12,17,44,9.50
2010,11,12,17,45,9.50
2010,11,12,17,46,9.50
2010,11,12,17,47,9.50
2010,11,12,17,48,9.50
2010,11,12,17,49,9.60
2010,11,12,17,50,9.60
2010,11,12,17,51,9.60
2010,11,12,17,52,9.60
2010,11,12,17,53,9.60
2010,11,12,17,54,9.60